Tracking 20942 objects as of 14-Jul-2020
HD Live streaming from Space Station
objects crossing your sky now

DELTA 1 DEB

Track DELTA 1 DEB now!
10-day predictions


NORAD ID: 12170
Int'l Code: 1978-026K
Perigee: 803.3 km
Apogee: 869.1 km
Inclination: 98.9 °
Period: 101.5 minutes
Semi major axis: 7207 km
RCS: 0.045 m2 (small)
Launch date: March 5, 1978
Source: United States (US)
Launch site: AIR FORCE WESTERN TEST RANGE (AFWTR)

Note: This is SATELLITE DEBRIS
aabbcc
Your satellite tracking list
Your tracking list is empty




NASA's NSSDC Master Catalog

Two Line Element Set (TLE):
1 12170U 78026K   20195.74338142 +.00000032 +00000-0 +36380-4 0  9992
2 12170 098.8953 181.9973 0045648 108.9729 065.8480 14.18891748035792
Source of the keplerian elements: AFSPC